Retour au catalogue

CBERS 1 DEB

ActifSSO
NORAD 30783·DEBRIS·🇧🇷 Brazil🇨🇳 China

Lancé Oct 14, 1999 depuis Taiyuan Satellite Launch Center

Loading…

Prochains Passages (prochaines 24 heures)

TLE

FraisSource: Space-Track

Époque: Sep 14, 2026, 20:05 UTC

1 30783U 99057NS  26257.83732245  .00003386  00000-0  81627-3 0  9994
2 30783  98.2894  31.9809 0034918 287.9500 234.3182 14.53505302 23971

Suivez CBERS 1 DEB en temps réel avec AllMySat

Download on the App Store